Theta_e
324 325 326 326 326 327 327 328 328 328 328 326 323 321 322 322 323 328 331 330 329 327 328 328 328 329 330 330 329 328 327 328 328 329 328 328 328 329 329 329 329 329 328 328 327 327 328 327 328 328 328 327 327 327 327 327 326 326 326 325 323 323 324 323 323 321 317 314 314 313 312 314 316 317 317 314 311 311 310 310 308 306 306 308 309
322 323 325 326 327 327 327 328 328 328 328 327 325 324 324 324 324 326 329 330 329 328 328 327 328 329 330 329 328 327 327 328 328 328 328 328 328 329 329 329 329 329 328 327 327 326 326 327 327 327 327 326 327 327 327 326 326 326 326 324 321 321 322 322 321 319 315 314 314 313 312 312 311 313 316 316 313 311 310 309 307 306 306 308 309
321 322 324 326 327 326 327 328 328 327 326 327 327 326 325 325 326 325 327 329 330 329 328 328 328 330 330 329 327 326 326 328 328 328 328 328 328 328 328 328 329 329 328 327 326 326 326 326 326 326 326 326 326 326 326 326 326 326 325 323 320 320 320 319 319 318 316 315 315 315 314 313 312 311 312 314 313 312 309 307 306 306 306 307 308
321 322 322 325 326 326 326 327 328 328 327 327 327 326 326 326 327 327 327 328 329 328 328 327 328 329 329 329 327 326 326 327 327 327 327 327 327 327 328 328 329 328 327 327 326 325 325 325 325 325 325 326 326 326 326 326 326 326 325 322 320 320 319 319 318 317 317 316 316 317 315 314 313 312 310 310 311 310 308 306 306 307 307 308 308
321 321 321 323 324 325 326 326 327 327 327 327 327 327 327 328 329 330 329 328 328 327 326 327 327 327 328 329 328 327 326 326 325 325 326 326 326 327 327 328 328 328 327 326 326 325 325 325 325 325 325 326 326 325 326 326 326 326 324 321 320 320 319 319 319 319 319 319 319 319 318 317 315 313 311 309 309 308 307 307 307 308 309 310 310
320 321 322 322 323 324 325 326 326 326 327 328 328 328 328 328 330 330 329 329 328 326 325 327 328 327 326 326 328 328 327 326 325 323 324 325 325 326 327 328 328 327 326 326 325 325 325 325 325 324 325 326 325 325 326 326 326 326 324 321 319 320 320 320 320 320 320 321 321 321 321 320 319 316 314 311 310 308 307 307 308 309 310 311 311
319 320 322 322 322 322 323 325 326 326 327 327 328 328 329 329 329 330 330 329 328 326 325 327 329 328 325 323 325 328 328 327 325 323 323 325 325 325 327 328 327 327 326 326 325 325 325 325 325 324 325 325 325 325 326 326 326 326 324 321 319 320 320 320 321 321 321 321 322 322 322 322 322 319 316 313 311 309 308 308 309 310 311 311 311
317 319 321 321 322 322 322 323 323 325 326 326 327 328 328 329 329 330 330 330 328 326 325 327 328 328 325 322 324 327 328 327 326 324 324 325 325 325 326 326 326 325 326 325 325 325 326 325 325 325 325 326 326 325 326 326 326 326 325 322 320 320 321 321 321 321 322 322 323 323 322 322 321 319 316 314 312 310 310 310 310 310 311 311 311
316 317 318 319 320 321 321 321 322 323 324 325 326 326 327 328 329 329 330 330 329 327 326 327 328 327 326 324 325 327 328 327 326 325 323 323 323 324 324 324 324 324 325 325 324 325 325 325 325 325 325 326 326 325 326 326 326 326 325 322 321 321 321 321 321 321 321 322 322 322 321 321 319 317 316 315 313 312 311 311 311 312 312 312 312
315 316 316 317 319 320 321 321 321 322 323 324 325 325 326 327 328 329 329 329 330 329 328 327 327 328 327 326 325 327 327 327 326 325 323 322 322 322 322 322 323 323 323 322 322 323 323 324 325 325 325 326 326 326 326 326 325 325 324 322 322 323 321 320 319 319 319 319 319 320 320 319 317 316 316 315 314 313 313 313 313 313 313 314 315
315 315 315 315 316 317 318 320 320 321 322 323 323 324 325 326 327 327 328 328 329 329 328 328 328 328 328 326 326 326 326 326 326 324 322 321 321 321 322 322 322 322 321 321 322 322 322 323 324 325 325 325 326 326 326 325 324 324 324 323 323 323 320 319 318 317 318 318 318 318 318 317 316 315 315 315 314 314 314 313 313 314 315 317 318
314 314 314 315 315 315 316 317 318 319 321 323 323 323 324 325 325 326 326 326 328 328 328 328 328 328 328 327 326 326 326 326 326 323 321 321 322 323 323 322 322 322 322 322 322 322 323 323 323 324 325 325 326 325 323 322 321 322 323 322 322 321 319 318 318 317 317 317 317 317 316 316 315 314 314 315 315 315 315 315 316 317 317 317 318
313 314 314 314 314 314 314 315 316 317 319 321 323 323 323 324 324 325 325 325 326 327 328 328 328 327 327 327 327 326 326 326 325 323 322 322 323 323 322 322 321 321 322 322 322 322 323 324 325 325 325 325 325 323 321 320 319 320 321 320 319 318 318 317 317 317 317 317 317 317 317 317 317 316 317 317 317 317 317 317 317 317 316 316 316
312 313 313 313 313 313 314 314 314 315 317 319 322 323 323 323 324 324 324 324 324 325 327 327 328 327 327 327 326 326 326 325 324 323 323 322 322 321 321 321 321 321 321 322 321 321 323 325 326 325 324 324 324 321 319 319 319 319 319 319 318 318 318 318 318 318 318 318 318 318 318 318 318 317 317 316 316 316 316 316 316 316 316 316 316
312 312 312 313 313 313 313 313 314 314 315 317 320 321 322 322 323 323 324 324 323 324 325 326 327 327 328 327 325 325 326 325 323 323 323 322 321 321 321 321 321 321 322 322 320 321 323 324 324 323 324 324 322 319 319 319 319 318 318 318 318 318 318 318 318 318 318 318 318 318 317 316 316 315 314 314 314 314 314 314 315 315 315 315 314
312 312 312 312 313 313 312 312 313 314 314 315 317 319 320 320 321 322 322 323 323 323 324 325 326 327 327 326 324 325 326 324 323 324 324 322 321 321 321 321 321 321 321 321 320 321 323 323 322 322 322 322 320 318 319 319 318 318 318 318 317 318 318 318 318 318 317 316 316 315 314 313 313 312 312 312 312 313 313 313 313 313 313 312 312
310 311 312 312 312 312 312 312 312 313 314 314 315 316 317 317 318 319 320 321 321 322 323 324 325 326 326 325 323 322 323 322 323 324 323 321 321 321 321 321 321 321 321 320 321 322 322 321 321 321 320 319 319 318 319 319 318 318 318 317 317 317 318 317 317 315 314 313 313 313 312 312 312 311 312 312 312 312 312 312 312 311 310 310 309
307 309 311 312 312 312 312 312 312 312 313 313 312 312 313 314 315 316 317 318 318 318 318 321 324 324 324 323 321 321 322 322 323 323 321 321 321 320 320 320 320 321 320 320 321 322 321 320 320 319 318 318 319 319 319 319 318 317 317 316 316 317 316 315 314 313 313 313 313 312 312 312 312 312 312 312 312 312 311 311 310 309 307 306 305
305 307 309 310 311 312 312 312 312 312 312 311 310 310 311 312 313 313 314 315 315 315 315 317 321 321 320 320 320 320 322 323 323 322 321 320 320 319 318 318 319 320 320 320 322 323 322 320 319 319 319 319 319 319 319 318 318 318 317 316 315 315 314 313 313 313 313 313 313 313 312 312 312 311 311 311 311 311 310 309 307 305 303 302 301
304 306 307 309 310 311 312 312 311 311 311 310 309 309 310 311 311 312 312 312 314 314 314 316 318 318 318 318 319 320 321 322 323 322 321 320 319 317 317 317 318 319 320 321 322 322 321 320 320 319 319 319 319 318 318 318 318 317 316 315 314 314 313 313 314 313 313 313 312 312 311 310 310 310 309 309 308 307 305 304 303 301 301 301 300
302 304 306 307 308 309 310 310 311 311 310 310 309 309 309 310 310 311 311 312 312 313 314 315 316 316 316 318 319 319 319 319 320 321 321 320 318 317 317 317 318 319 320 321 320 320 319 319 319 319 318 318 318 318 319 318 317 315 314 314 314 314 314 313 313 312 312 311 310 309 309 308 307 307 306 305 304 303 302 301 301 300 300 299 299
301 302 304 305 306 308 308 309 309 310 310 309 309 309 309 309 309 309 310 311 312 312 313 314 314 314 316 317 318 318 318 317 318 319 319 318 318 318 318 318 319 319 321 321 319 318 317 317 317 318 317 317 318 318 317 316 314 313 313 313 313 313 312 311 311 310 309 308 307 306 305 305 304 304 303 302 302 301 301 301 300 299 298 297 297
301 301 302 303 304 306 307 307 308 309 309 309 309 308 308 308 309 309 309 310 311 311 311 311 312 314 314 315 316 316 316 317 317 317 318 318 318 318 318 318 319 319 319 320 319 318 317 317 317 318 317 316 315 314 314 313 313 312 312 312 311 311 310 310 310 309 306 304 302 302 302 302 302 302 302 302 302 301 300 299 298 297 297 296 296
301 301 300 301 302 304 305 306 307 306 306 306 306 306 306 307 307 308 308 308 309 309 308 309 311 312 312 312 313 313 314 315 315 316 316 316 316 316 316 316 316 316 315 316 316 316 316 316 316 316 315 314 313 313 312 312 312 312 311 310 310 310 309 308 307 305 302 300 300 301 302 302 303 302 302 301 300 299 297 297 296 296 296 297 297
301 300 300 299 299 300 302 304 305 305 304 304 303 303 304 304 305 305 306 306 307 307 307 307 308 309 309 309 309 309 310 310 311 312 313 314 314 314 314 314 314 314 314 313 313 314 314 314 314 314 314 314 313 313 312 311 311 311 310 309 309 309 307 304 302 301 300 300 301 302 302 303 302 301 300 299 297 297 296 296 296 296 296 297 297
300 300 300 299 298 298 299 301 303 304 304 303 303 303 303 303 303 303 303 303 304 304 305 306 307 307 307 307 306 306 307 307 307 308 309 310 310 310 311 311 312 311 312 312 312 313 313 313 313 312 312 312 311 310 309 309 308 307 306 306 305 304 303 301 301 301 302 302 303 303 302 302 300 299 297 296 296 296 296 296 297 296 297 298 299
300 300 300 300 299 299 298 298 299 300 301 302 302 301 301 301 301 301 302 302 301 301 302 303 304 304 305 305 305 306 306 306 306 306 306 306 307 307 307 307 308 308 309 308 308 308 309 309 309 307 306 305 304 304 304 304 303 303 302 302 302 302 302 302 302 303 303 303 302 301 300 299 297 297 296 296 296 296 296 297 298 298 298 299 299
299 300 300 300 300 300 299 299 299 298 298 298 299 299 299 298 299 299 300 300 300 300 299 300 301 302 302 302 303 304 305 305 305 305 304 304 305 305 305 305 305 305 305 304 304 304 304 305 305 304 302 301 301 301 301 301 301 302 302 302 302 302 302 302 302 302 301 300 299 298 297 296 296 296 296 296 296 297 296 297 297 297 298 299 299
297 298 299 300 300 300 300 300 300 299 298 298 298 298 298 298 298 298 298 298 298 298 298 298 299 300 300 300 301 301 302 303 303 303 303 303 303 303 303 303 303 302 302 302 302 302 302 302 301 301 300 300 301 301 301 302 302 302 302 302 302 302 301 300 299 298 297 297 296 296 296 296 296 296 296 296 297 297 297 297 297 297 298 298 298
298 298 298 299 300 300 300 300 300 300 299 299 298 298 298 297 297 297 297 297 297 297 297 297 297 298 298 299 299 299 299 299 299 300 300 300 300 300 300 300 300 300 300 300 300 300 300 300 300 301 301 301 302 302 302 302 302 302 301 301 301 300 299 297 297 297 296 296 296 296 296 296 297 297 297 297 297 297 297 297 297 297 297 297 297
298 298 298 299 299 299 300 300 300 300 300 299 299 299 298 298 297 297 296 296 296 296 296 296 297 297 297 298 298 298 298 298 298 298 298 299 299 298 298 299 299 299 299 299 299 299 299 300 300 301 301 301 301 301 301 301 301 301 301 300 299 298 297 297 297 297 297 297 297 297 297 297 297 297 296 296 296 296 296 296 297 296 296 296 296
298 298 298 299 299 299 299 299 299 299 299 299 299 299 299 298 298 298 297 297 297 296 296 296 296 296 296 297 297 297 297 297 297 297 298 298 299 299 299 299 299 300 300 300 300 300 300 300 300 301 301 301 301 301 301 301 301 300 299 298 297 297 297 297 297 297 297 297 297 297 297 297 296 296 296 296 296 296 296 295 295 295 294 295 295
297 298 298 298 298 298 299 299 299 299 299 299 299 299 299 299 298 298 298 297 297 297 296 296 296 296 295 296 296 297 297 297 297 298 298 298 299 299 300 300 300 300 300 300 300 301 301 301 301 301 301 301 301 301 300 300 300 299 298 297 297 297 297 297 297 297 297 297 297 297 296 296 296 296 296 296 295 295 295 294 294 294 294 294 294
297 297 298 298 297 297 297 297 298 298 298 298 298 298 299 299 298 298 297 297 297 297 296 296 296 295 295 295 295 295 296 296 297 298 298 298 298 299 299 300 300 300 300 300 300 300 300 301 301 300 300 300 300 300 299 299 298 297 297 297 297 297 296 296 296 296 296 296 296 296 296 296 296 295 295 294 294 294 294 293 293 293 293 293 293
297 297 297 297 297 297 296 296 296 297 297 298 298 298 299 299 298 298 297 297 297 296 296 295 295 295 295 295 295 295 294 295 295 296 297 297 298 298 299 299 300 300 300 300 300 300 300 300 300 300 300 299 299 298 298 297 297 296 296 296 296 296 296 296 296 296 296 296 296 296 295 295 295 294 294 293 293 293 293 293 293 293 293 293 293
297 297 297 297 297 296 296 296 296 296 297 297 297 298 298 298 298 298 297 296 296 296 295 295 295 294 294 294 295 295 295 294 295 295 296 296 297 297 297 298 298 299 299 299 299 299 299 299 299 299 298 298 297 297 296 296 296 296 296 296 296 296 296 296 296 296 295 295 295 295 294 294 293 293 293 292 292 292 292 292 292 292 292 292 292
297 297 297 297 297 297 296 296 296 295 296 296 297 297 297 298 298 298 297 296 296 296 295 295 294 294 294 294 294 294 295 294 294 295 295 296 296 296 296 296 297 297 297 298 298 298 298 298 298 297 297 296 296 296 296 296 296 296 296 296 296 296 295 295 295 295 295 294 294 294 293 293 292 292 292 292 292 292 292 292 292 292 291 291 291
297 297 297 297 297 297 297 296 296 296 295 295 296 296 297 297 298 298 297 296 296 296 295 295 294 294 293 293 293 293 294 294 295 295 295 296 296 297 297 296 296 296 296 297 297 297 297 296 296 296 296 296 296 296 296 296 296 296 296 295 295 295 295 294 294 294 294 293 293 292 292 292 292 291 292 292 291 291 291 291 291 291 291 291 291
297 297 298 297 297 297 297 296 296 296 295 295 295 295 296 297 297 297 297 296 296 295 295 295 294 294 293 293 292 293 294 294 294 295 295 296 296 297 297 296 296 296 296 296 296 295 295 295 295 296 296 296 296 296 296 296 295 295 295 295 294 294 294 294 293 293 293 292 292 292 291 291 291 291 291 291 291 290 290 290 291 291 291 290 290
297 297 298 297 297 297 297 296 296 296 295 295 294 295 295 296 297 297 297 296 296 295 295 295 294 294 293 292 292 292 293 294 294 294 295 295 296 297 296 296 295 295 295 295 295 295 295 295 295 295 295 296 295 295 295 295 295 294 294 293 293 293 293 293 293 292 292 292 291 291 291 291 291 291 291 290 290 290 290 290 290 290 290 290 290
297 297 297 297 297 297 297 296 296 296 296 295 295 294 295 296 297 297 297 296 296 295 295 295 294 294 293 293 292 292 293 293 294 294 294 295 295 296 296 295 295 295 294 294 295 295 295 295 295 295 295 295 295 294 294 294 293 293 293 293 293 292 292 292 291 291 291 291 291 291 291 290 291 290 290 290 290 290 290 290 290 290 290 290 290
296 297 297 296 297 297 297 296 296 296 296 295 295 294 294 295 296 297 296 296 296 295 295 295 295 294 294 293 293 292 292 292 293 293 293 294 295 295 295 294 294 294 294 294 294 294 294 294 294 294 294 294 294 293 293 293 293 293 292 292 291 291 291 291 291 291 291 290 290 290 290 290 290 290 290 290 290 290 290 290 290 290 290 290 290
296 296 296 296 296 296 297 297 296 296 296 296 295 295 294 294 295 295 296 296 296 295 295 294 295 295 294 294 293 293 292 292 292 292 293 293 294 294 295 294 294 294 294 294 294 293 293 293 293 293 293 293 293 293 293 293 293 292 292 291 291 290 290 290 290 291 291 290 290 290 290 290 290 290 290 290 290 290 290 290 290 290 290 290 290
296 296 296 296 296 296 297 297 297 296 296 296 295 295 294 294 294 294 295 295 295 295 295 294 294 294 295 294 294 294 293 292 292 292 292 293 293 293 294 294 294 293 293 293 293 293 293 293 293 293 293 293 293 292 293 292 292 292 291 291 291 290 290 290 290 290 290 290 290 290 290 290 290 290 290 290 289 289 289 290 290 290 290 290 290
295 296 297 297 296 296 296 297 297 297 296 296 296 295 295 295 294 294 294 294 295 295 295 294 294 294 294 294 294 294 294 293 292 291 291 292 292 292 293 294 294 294 293 293 293 292 293 293 293 293 293 293 293 292 292 292 292 291 291 290 290 290 290 290 290 290 290 290 290 290 289 289 289 289 289 288 288 288 288 289 289 289 289 289 290
293 295 296 297 296 296 296 296 297 297 297 296 296 296 295 295 295 294 294 295 295 295 295 295 294 294 294 294 294 294 294 293 293 292 291 291 291 292 292 293 293 294 293 293 293 292 292 293 293 293 293 293 293 292 292 292 291 290 289 289 289 290 290 290 290 290 290 290 290 290 289 289 289 288 287 287 286 286 286 287 287 287 288 289 289
291 292 294 295 295 294 294 295 295 296 297 297 297 296 296 296 295 295 294 295 294 294 294 294 294 293 293 294 294 294 293 293 293 293 292 291 291 291 291 291 292 293 294 294 293 293 292 292 293 293 293 293 293 292 292 291 290 288 288 288 289 290 290 290 290 290 290 290 290 289 289 289 288 287 286 286 286 286 286 286 286 286 286 287 288
291 291 292 293 292 292 292 292 294 295 295 296 296 296 296 296 296 295 295 295 294 294 294 294 293 293 293 294 294 294 293 293 293 293 293 292 291 290 290 290 291 292 293 294 293 293 293 293 293 293 293 293 293 292 291 290 288 287 288 289 290 290 290 290 290 290 290 290 289 289 288 288 287 286 286 286 286 286 286 286 286 286 285 286 287
292 291 291 292 292 292 292 292 293 295 295 295 295 296 296 296 296 296 295 295 295 294 294 294 294 293 293 294 294 294 294 293 293 293 293 293 292 291 290 289 289 290 291 293 293 293 293 293 293 293 292 292 291 290 289 288 288 289 289 290 290 290 290 290 290 290 290 289 289 288 287 286 286 286 286 286 286 286 286 286 286 286 285 285 286
292 291 291 292 292 292 292 292 292 293 294 294 295 295 295 296 296 296 296 295 295 295 295 294 294 294 294 294 294 294 294 294 294 293 293 293 293 292 292 290 289 289 289 290 291 292 292 292 292 292 291 290 289 288 288 289 290 290 290 290 290 290 290 290 289 289 289 288 288 287 286 286 286 286 286 286 285 285 285 285 286 286 285 285 286
293 292 292 292 292 292 293 292 292 292 292 292 292 292 293 293 294 295 295 295 295 295 295 295 294 294 294 294 295 295 294 294 294 294 293 293 293 292 292 291 290 289 288 288 289 289 290 290 290 290 289 289 289 289 290 290 290 290 290 290 290 289 289 289 288 288 287 287 286 286 286 286 286 285 285 285 285 285 285 285 286 286 285 285 286
Wind_Speed
14 14 13 13 11 9 10 11 11 12 13 14 12 11 12 13 14 16 17 18 18 19 20 21 21 22 22 22 21 21 21 21 21 21 21 21 20 19 19 20 19 18 17 16 16 16 15 14 15 14 12 12 13 13 12 12 13 12 11 12 12 11 8 6 10 14 14 13 14 12 10 10 10 11 11 10 9 9 9 7 6 6 5 5 6
13 12 11 11 9 7 8 11 12 12 13 13 14 14 14 15 16 18 19 19 20 20 21 22 23 24 24 23 22 22 22 22 21 21 21 20 19 19 20 19 19 18 18 17 16 16 16 15 16 15 13 13 13 13 13 13 13 14 13 14 14 13 11 11 13 16 14 13 12 10 10 9 9 9 10 10 10 9 9 8 7 6 5 5 5
12 11 9 9 9 8 9 11 12 13 13 14 15 16 17 17 18 20 20 20 21 21 21 22 24 25 25 23 21 21 22 23 22 21 21 20 19 19 19 18 18 19 18 17 16 16 16 16 16 16 15 15 15 14 14 14 14 14 14 16 17 16 15 16 16 16 14 12 10 9 8 8 7 8 9 11 11 10 10 10 8 7 6 6 6
10 10 9 8 9 8 10 13 14 14 15 15 16 17 18 19 20 21 20 20 22 22 21 22 24 25 24 22 20 20 21 22 22 22 22 21 20 19 19 18 18 18 17 16 16 15 15 16 16 17 17 17 16 16 16 16 16 16 16 18 19 18 18 18 17 16 14 12 9 8 7 7 7 7 8 10 11 11 11 11 9 8 7 7 7
10 9 9 8 9 10 12 15 17 17 17 17 17 18 19 20 21 21 21 21 22 23 23 23 24 24 24 22 20 18 19 21 22 22 23 22 21 19 18 18 17 17 17 16 16 15 15 16 16 17 18 18 17 17 17 17 17 17 17 19 20 20 19 18 17 15 13 12 10 8 7 6 7 7 7 9 10 11 11 11 9 8 8 7 7
12 8 8 8 8 9 12 15 18 19 19 19 19 19 20 21 21 22 22 22 23 24 24 24 24 24 24 22 20 18 17 19 20 21 22 22 21 19 18 17 17 16 16 16 16 16 16 16 16 17 18 18 18 18 17 17 17 18 19 20 21 21 19 18 16 14 13 12 10 9 8 7 7 8 8 8 9 10 11 10 9 9 8 8 7
19 12 9 9 8 8 10 13 16 18 19 20 21 21 21 21 22 22 22 22 24 25 24 24 24 24 24 22 21 19 18 18 19 19 20 20 20 20 19 18 17 16 16 15 15 16 16 16 17 18 19 19 18 17 17 17 17 18 19 20 22 21 19 17 15 14 13 12 12 11 10 9 8 8 9 9 9 10 11 10 10 9 9 8 8
26 20 15 12 11 10 9 11 14 17 18 19 21 22 22 22 22 23 23 24 25 26 25 24 24 23 23 23 22 20 20 19 19 19 19 19 19 19 19 19 18 17 17 16 16 16 16 16 17 18 18 18 18 17 17 17 16 17 19 21 22 21 18 16 14 13 12 12 12 12 11 10 9 9 10 11 11 10 10 10 10 9 9 9 9
27 25 22 18 15 14 12 11 12 15 17 19 20 21 23 23 23 24 24 25 26 27 26 26 25 24 24 25 23 22 21 20 19 19 19 19 20 20 20 19 18 18 17 17 17 16 16 17 17 17 18 18 17 17 17 16 16 17 18 21 23 21 18 15 13 12 12 12 12 12 12 11 10 10 10 11 11 11 10 10 10 9 10 10 10
26 26 25 24 21 18 15 12 12 13 16 18 19 20 21 23 24 25 26 26 27 28 28 27 27 26 26 25 23 22 21 20 19 18 19 19 20 20 20 19 19 18 18 17 17 17 17 17 17 17 18 18 18 19 17 16 16 15 16 21 24 21 17 15 13 12 11 11 10 11 12 12 12 11 11 11 11 11 11 10 11 10 10 10 10
27 27 26 26 26 24 21 17 16 15 14 15 17 18 18 19 22 24 25 27 29 29 29 28 28 27 26 23 22 21 21 20 18 18 18 19 19 20 20 20 19 18 17 16 15 15 16 16 17 17 19 20 21 20 17 16 16 15 16 20 21 18 16 15 14 13 12 11 11 11 13 14 13 13 12 11 11 11 11 11 11 10 10 10 9
26 27 27 27 27 27 26 23 21 18 15 13 13 15 15 15 17 19 21 24 27 28 29 29 29 28 26 23 22 21 21 20 18 18 19 19 19 19 19 20 20 18 17 15 15 14 14 15 17 17 19 20 19 18 17 17 17 17 18 20 19 16 16 15 14 14 13 12 12 12 13 13 13 12 11 10 10 9 9 10 9 9 10 11 10
25 27 28 29 29 29 29 28 26 24 19 13 10 11 13 13 14 15 16 18 21 24 26 27 29 29 27 25 24 22 21 20 18 18 19 19 19 19 19 19 19 18 17 15 14 13 13 15 17 18 18 18 17 18 20 19 18 19 20 19 18 18 18 17 15 13 12 12 12 11 11 10 9 8 7 6 6 6 7 8 9 10 11 12 12
25 26 28 29 30 31 31 30 30 29 24 17 11 9 10 11 12 13 13 14 15 18 22 26 28 28 27 27 26 24 22 20 19 19 20 19 18 18 18 19 19 19 17 15 13 13 14 16 18 18 18 18 19 20 21 19 19 20 20 19 19 19 18 17 16 13 12 11 9 9 8 7 6 4 4 4 5 6 7 9 10 11 12 13 14
25 27 27 28 30 30 31 31 32 31 28 21 14 12 13 13 14 14 14 14 15 18 22 26 29 28 27 27 27 25 22 20 20 21 21 20 18 18 18 18 18 18 17 15 13 12 13 15 17 19 20 20 20 20 19 19 20 20 19 19 20 19 17 16 14 13 12 10 9 8 7 6 4 3 3 4 5 7 8 10 11 12 13 13 13
25 27 28 28 29 29 29 31 32 32 30 24 17 15 16 16 16 15 14 15 16 19 23 27 29 28 27 27 26 24 22 20 21 22 21 20 19 18 17 17 18 17 16 15 13 12 14 15 17 19 20 20 20 19 18 18 18 17 18 18 17 16 15 14 13 11 11 10 9 7 6 4 3 3 4 5 7 8 9 10 11 12 12 11 10
27 27 27 27 28 27 28 30 32 33 32 28 22 19 17 17 15 13 13 14 16 18 22 26 27 25 26 25 22 20 19 20 21 21 21 21 20 18 17 18 18 17 16 16 14 14 16 17 17 19 20 19 20 19 18 17 15 15 15 14 14 15 15 14 13 12 11 9 7 6 4 4 4 5 6 7 8 10 10 11 11 11 11 9 9
28 27 26 25 25 24 25 28 30 32 33 31 28 24 21 18 15 11 9 11 12 13 16 22 24 21 21 21 20 19 19 21 21 20 21 21 19 17 17 19 20 19 18 17 16 16 17 18 18 19 19 19 19 18 16 15 14 14 14 14 16 17 16 15 13 11 9 8 7 6 5 5 6 7 8 9 10 11 11 11 11 10 10 8 9
26 25 24 23 22 22 23 25 28 29 31 31 29 26 23 19 16 13 9 7 6 6 7 11 13 13 14 16 18 19 19 20 20 21 21 21 19 17 16 18 20 21 20 20 20 18 19 20 19 18 18 18 18 17 16 15 14 14 15 15 16 15 14 11 9 8 7 7 6 6 6 6 7 8 9 10 11 11 11 10 9 8 8 8 8
24 24 23 21 21 21 21 23 25 26 28 28 26 24 23 19 16 13 11 9 6 2 2 2 2 5 10 15 16 16 17 19 21 21 21 20 19 16 14 14 17 20 22 25 26 24 23 23 22 20 18 18 19 19 19 17 15 14 13 13 11 10 8 7 6 5 5 5 5 6 6 6 7 8 9 9 9 9 9 9 8 7 7 8 9
23 23 23 21 21 22 22 22 23 23 25 25 24 23 22 19 16 14 13 11 9 8 6 5 3 4 8 12 13 12 13 15 18 20 21 21 19 17 14 13 14 18 22 26 27 27 27 26 25 24 22 22 22 22 21 19 15 12 11 9 7 6 5 4 4 4 5 5 5 6 6 6 7 7 8 8 7 7 7 7 7 7 6 7 7
23 23 23 23 23 23 23 22 21 21 21 22 23 22 21 20 18 16 15 13 12 11 9 7 8 10 9 8 8 8 8 10 13 15 16 16 15 14 13 14 16 19 23 25 24 24 25 25 24 24 23 22 21 19 16 14 11 8 7 6 5 4 4 5 5 5 6 6 6 6 6 6 6 5 5 5 5 5 6 6 7 7 7 6 5
21 21 22 23 24 24 24 23 22 20 20 21 22 22 22 21 21 20 18 17 16 15 15 15 14 13 11 10 10 9 8 8 9 11 11 11 12 11 11 14 17 19 21 24 23 22 22 23 23 23 20 16 12 10 8 7 7 7 6 6 6 7 8 9 8 7 6 4 5 5 4 4 3 3 3 4 5 6 7 7 7 7 6 5 4
20 21 21 23 23 24 24 24 23 22 22 22 23 23 22 21 21 20 19 18 18 18 18 17 15 14 14 15 15 14 13 13 14 14 14 14 14 14 14 15 17 16 16 17 19 19 19 19 17 17 16 12 10 9 8 7 8 9 8 7 8 9 9 9 7 5 4 3 4 5 4 4 4 4 5 6 6 7 7 6 6 5 4 4 3
21 21 21 22 23 24 23 23 21 21 22 23 24 24 23 21 21 20 19 18 17 17 17 16 15 14 13 14 15 14 14 13 14 15 16 16 16 16 15 15 16 15 13 13 14 14 14 13 13 13 13 12 11 10 9 8 9 10 9 8 9 9 7 5 4 3 4 5 6 6 5 5 5 5 5 6 5 5 4 4 3 3 3 2 2
21 22 22 21 21 22 23 22 21 19 19 21 22 23 23 24 24 23 23 22 20 18 15 13 12 11 10 10 10 10 10 9 10 10 10 11 11 11 10 10 9 9 9 10 11 12 11 11 10 9 9 9 8 7 6 7 7 7 6 5 5 4 4 4 4 6 6 7 7 6 6 6 5 5 4 3 3 2 2 2 2 2 2 1 1
20 22 22 22 21 21 22 22 21 19 19 18 19 20 21 21 22 23 24 23 23 22 19 16 13 11 10 8 6 5 4 5 6 6 6 6 6 7 7 7 6 5 5 6 7 7 7 7 6 5 3 2 1 1 1 1 2 2 3 3 4 5 6 7 7 7 7 7 6 6 6 5 3 2 1 1 1 1 1 1 1 1 1 0 1
20 20 21 21 21 22 22 21 20 20 19 18 18 18 18 18 19 20 21 21 21 21 21 19 18 16 14 10 6 3 2 2 3 3 2 1 0 1 2 3 3 3 3 4 5 5 5 5 5 5 5 5 4 3 3 4 4 5 6 7 7 7 7 7 7 7 7 7 6 5 4 2 1 1 1 1 1 1 1 1 2 1 2 2 2
21 20 20 20 20 20 21 21 21 21 21 20 19 19 18 18 18 18 19 19 19 18 18 19 19 18 17 15 12 10 7 5 3 1 1 2 3 3 4 5 6 6 7 6 6 7 7 8 8 8 7 6 5 6 7 6 6 7 7 7 7 7 7 6 6 6 6 5 4 4 3 3 3 3 3 3 3 3 3 4 4 4 4 4 3
22 22 20 20 19 19 19 19 20 20 20 20 20 20 20 20 20 20 19 18 17 17 17 18 18 17 16 16 16 15 15 15 13 12 10 9 9 9 9 9 9 9 10 10 9 9 10 10 10 10 9 8 7 7 6 6 6 6 6 7 6 5 5 5 5 5 4 4 5 5 5 5 5 5 5 5 5 5 5 5 5 5 4 4 4
22 22 21 20 19 19 19 19 18 18 18 18 19 20 21 22 22 22 21 19 18 17 17 17 17 16 16 16 15 14 14 14 14 14 14 14 14 13 12 12 12 11 11 9 9 8 8 8 9 9 8 7 6 5 5 5 6 6 6 5 4 4 4 4 4 5 5 6 6 7 7 7 7 7 7 7 7 7 6 5 5 6 6 6 6
20 20 20 20 20 19 18 18 18 17 16 17 18 18 19 21 22 22 22 22 21 21 20 18 17 16 15 15 13 12 11 11 11 11 11 12 11 11 10 9 9 9 8 7 6 7 7 7 7 7 7 7 6 6 6 6 6 6 5 5 4 4 5 6 7 7 8 8 9 9 9 9 8 8 8 8 8 8 7 8 8 9 9 9 8
18 18 19 20 21 20 19 18 17 17 16 16 17 17 18 18 19 20 20 21 21 21 21 20 19 18 16 14 12 10 9 8 7 7 7 7 7 7 7 7 7 7 7 5 3 4 6 6 6 7 8 7 7 7 7 7 7 6 5 5 5 6 7 8 9 10 11 11 11 10 10 9 10 10 9 9 9 9 10 11 10 10 10 9 8
17 17 17 18 19 19 19 18 17 16 15 14 15 15 15 16 16 16 17 18 20 21 21 21 20 19 17 15 13 11 9 7 5 4 3 3 4 4 5 5 6 5 5 3 2 4 5 6 6 7 7 7 7 7 7 7 6 5 6 7 8 9 10 12 12 12 12 11 11 10 10 10 10 10 10 10 11 11 11 11 10 9 9 8 8
17 16 15 15 16 17 18 18 17 15 14 13 13 13 13 13 13 14 15 17 18 19 20 21 21 21 19 16 14 11 10 8 6 4 2 2 3 3 4 5 6 5 5 4 4 5 6 7 7 7 8 8 7 7 6 5 6 8 9 9 10 12 13 13 12 12 11 11 11 11 11 11 10 11 11 11 11 11 10 9 8 8 8 7 7
16 16 16 15 15 15 17 18 18 16 15 14 13 13 13 12 12 12 14 15 16 17 18 20 22 22 20 17 14 11 9 8 7 6 5 2 1 2 4 5 6 7 7 7 7 7 8 9 9 8 8 7 6 5 6 8 10 11 11 11 12 13 12 12 12 12 12 12 12 12 11 11 11 11 11 10 10 10 9 8 7 6 6 6 6
13 14 15 15 15 14 15 16 17 17 16 15 14 13 13 12 11 11 12 13 14 15 17 19 21 22 20 19 16 13 9 8 8 7 6 5 3 1 2 4 5 6 7 8 8 8 8 8 8 7 6 5 7 9 11 11 11 12 12 12 12 12 11 12 12 12 12 12 12 12 11 11 11 11 10 9 9 9 8 7 6 5 5 5 5
10 11 12 14 15 15 14 13 14 16 16 16 14 13 12 11 10 10 11 12 12 13 16 18 20 21 20 20 19 15 12 11 9 7 7 6 6 4 3 4 5 5 5 7 7 6 6 6 6 6 7 9 11 12 12 12 12 12 12 11 11 11 12 13 13 12 12 12 11 11 11 10 10 10 9 9 8 8 7 7 6 5 5 5 5
9 9 10 11 13 14 14 12 12 14 16 17 16 13 11 11 10 9 9 11 11 12 14 17 18 19 20 20 19 16 14 13 12 10 8 8 7 5 4 5 5 4 4 5 5 5 5 6 8 10 12 12 13 12 12 12 13 12 11 11 10 11 12 12 12 12 11 11 10 10 9 9 9 8 8 7 7 6 6 6 6 6 6 6 6
7 9 9 10 11 12 12 11 11 12 14 16 17 15 11 10 9 9 8 9 10 11 13 14 15 16 18 20 19 17 15 14 14 12 11 9 8 5 4 4 4 4 4 5 7 8 9 11 12 13 13 12 13 12 12 12 12 12 11 11 11 11 11 11 11 10 10 9 9 8 8 8 8 7 6 6 6 6 6 6 6 7 7 6 6
6 8 9 9 9 10 11 10 9 10 12 14 17 17 13 10 8 8 8 9 10 11 12 13 13 14 16 18 19 18 16 15 13 13 12 11 10 7 5 5 5 6 7 8 9 11 12 13 13 13 13 13 12 12 12 12 12 11 11 11 10 10 11 10 10 9 9 8 7 7 6 6 7 6 6 6 6 6 6 6 5 5 6 6 6
6 7 8 9 8 8 9 9 8 8 9 11 14 16 15 11 9 8 9 9 9 10 11 11 11 12 13 15 17 18 17 15 13 12 12 12 10 8 5 5 6 7 8 10 11 12 12 13 13 13 13 12 12 12 12 11 11 10 10 10 10 10 10 9 9 8 8 7 6 6 5 6 6 6 5 5 5 5 4 4 4 4 4 5 5
8 8 9 9 8 7 6 7 7 7 8 9 11 13 14 13 10 9 9 9 8 9 10 10 10 10 11 12 14 16 17 17 15 12 10 10 10 8 5 4 5 6 8 10 12 12 12 11 11 11 11 12 11 11 10 9 9 9 9 9 9 9 9 8 8 7 6 6 5 5 5 5 4 4 3 3 3 3 3 3 3 3 3 4 5
9 9 9 10 9 8 6 6 7 7 6 7 8 9 11 11 11 10 9 8 9 9 10 10 9 9 9 11 12 13 15 17 16 14 11 8 8 8 6 4 3 6 7 9 11 12 11 10 9 9 9 9 9 8 8 7 7 8 8 9 8 8 8 7 7 6 5 5 4 4 3 3 2 1 1 1 1 1 1 2 3 2 2 2 3
9 9 10 10 10 9 7 7 6 6 6 6 6 7 8 8 9 9 9 8 8 9 10 11 10 8 8 10 10 10 11 14 15 15 13 9 6 6 6 5 2 3 6 9 11 12 11 10 8 7 7 7 7 7 6 6 6 7 8 8 8 8 7 6 5 5 4 4 3 2 1 1 2 2 3 4 3 2 2 3 3 2 2 2 2
10 9 9 9 9 9 9 8 7 7 6 7 7 7 7 7 7 7 7 7 7 8 9 10 9 8 8 8 9 9 10 11 12 14 14 11 7 5 5 4 3 2 3 7 11 12 12 10 8 7 7 6 6 6 6 6 6 6 7 8 8 7 6 5 5 4 3 2 1 0 1 3 5 5 4 4 3 2 2 2 2 2 3 3 3
12 11 10 10 10 10 10 9 8 7 7 7 7 7 7 7 6 7 7 7 7 8 8 8 7 7 7 8 9 9 9 9 9 11 13 12 9 6 4 3 3 2 2 4 8 11 12 10 9 8 8 7 7 6 6 5 5 6 7 7 7 6 5 4 4 3 2 1 1 2 3 4 5 5 4 3 2 2 3 2 2 1 2 4 4
14 12 11 11 12 13 13 12 10 8 8 8 8 8 7 7 7 7 7 7 7 7 7 7 6 5 4 6 7 7 7 7 8 8 10 12 11 9 6 4 2 1 1 2 5 8 9 9 8 7 7 6 6 5 5 5 5 6 6 6 5 5 4 4 3 3 3 3 3 4 4 4 4 3 2 2 3 3 4 4 3 2 1 3 5
14 12 11 12 13 14 16 16 14 12 11 10 10 9 8 7 7 7 7 7 7 7 8 7 6 4 3 4 6 5 4 5 6 7 8 9 11 11 8 5 3 1 1 2 4 5 6 6 5 5 5 5 5 5 5 5 5 5 5 4 4 4 3 4 4 4 4 5 5 4 4 3 2 1 2 2 3 3 4 4 3 2 1 3 6
14 12 12 12 13 14 15 16 16 14 12 12 12 12 11 10 9 8 8 7 7 8 8 8 8 6 5 5 6 7 6 5 5 5 6 6 8 10 9 7 4 2 1 2 3 4 4 4 4 4 4 4 4 5 5 5 4 4 4 4 4 4 5 5 5 5 5 5 5 4 3 1 0 1 1 2 2 3 3 4 3 2 3 5 8
13 13 12 11 12 13 13 14 15 15 14 13 13 12 12 12 12 11 10 9 9 9 9 9 9 8 8 8 8 8 7 6 4 3 4 4 5 7 8 8 6 3 1 0 1 3 4 4 4 4 4 4 5 4 4 4 4 4 4 5 5 6 6 6 6 6 5 5 4 3 2 1 1 0 1 1 2 3 3 3 3 3 4 6 9
Wind_Direction
336 327 318 310 304 284 258 249 248 246 251 253 243 237 245 250 250 245 237 236 236 227 221 221 222 221 218 217 221 223 222 221 220 220 220 221 222 221 219 217 217 220 222 222 223 224 225 223 224 224 215 204 207 208 205 203 202 202 195 184 178 176 177 181 170 167 170 170 167 167 169 174 185 193 196 197 195 193 192 198 203 191 185 188 191
337 330 320 304 295 280 248 239 245 250 251 252 248 245 249 249 246 243 237 233 229 223 221 221 221 220 218 218 222 222 220 218 219 219 219 220 221 223 224 219 216 219 223 224 223 223 224 222 221 224 220 211 210 209 206 203 202 203 195 179 173 169 165 167 168 167 168 169 169 169 167 170 179 188 196 200 199 201 204 205 198 189 193 196 199
339 331 324 305 290 279 262 254 253 254 254 252 247 245 249 250 245 240 238 236 231 224 221 222 222 220 217 218 222 221 217 216 217 219 219 221 222 224 227 224 219 219 222 223 224 224 223 222 221 222 220 213 211 209 205 203 202 203 196 179 172 169 164 166 170 173 173 170 169 172 171 172 175 181 191 197 200 205 205 199 193 195 201 202 206
344 334 326 304 286 277 271 266 260 255 255 254 250 246 249 251 248 242 239 237 234 227 222 222 223 223 221 218 219 218 217 216 217 220 221 221 223 224 226 225 222 222 223 223 224 223 223 222 221 220 217 213 211 210 206 201 200 202 197 183 178 176 170 170 173 177 179 180 178 179 177 179 182 186 192 196 199 202 202 200 199 204 208 208 211
358 345 337 315 287 272 265 262 263 263 262 258 252 248 248 249 247 242 238 235 233 230 226 222 221 222 223 222 219 216 217 219 219 222 222 221 222 223 224 225 224 224 225 223 222 221 219 219 219 217 215 213 212 210 206 202 200 202 197 185 182 182 179 178 180 180 183 188 189 188 190 194 200 203 202 203 204 203 202 206 208 212 216 214 214
15 4 356 343 313 287 272 265 264 266 265 263 260 256 253 249 245 242 238 235 233 231 229 225 221 220 221 225 224 220 221 223 223 224 224 221 221 220 221 223 223 224 225 222 221 219 214 213 215 215 215 215 213 209 205 201 200 202 198 188 183 185 185 186 188 190 195 202 206 209 213 220 226 225 219 216 214 209 208 212 215 216 218 218 220
24 22 16 6 351 324 294 279 274 271 268 266 265 264 261 255 248 244 241 239 236 232 230 227 225 222 221 223 225 223 225 230 229 227 224 222 221 220 220 220 220 222 223 219 217 214 210 210 212 214 216 216 213 208 205 202 199 200 199 191 186 186 187 191 196 200 207 215 221 226 230 233 236 235 229 224 220 216 212 215 222 225 227 233 240
25 24 22 15 7 354 329 301 287 279 275 272 267 266 265 260 254 248 244 242 238 234 232 229 228 226 223 222 221 221 226 233 232 228 225 223 222 220 220 220 218 218 218 215 213 211 210 211 212 215 217 216 213 207 205 203 202 203 200 192 190 191 191 196 203 208 216 225 230 234 235 233 230 228 227 224 223 222 218 221 231 238 242 246 253
26 26 24 20 11 359 345 324 302 287 280 276 271 267 264 263 260 254 249 245 239 235 233 230 229 229 225 221 217 217 225 231 230 229 227 224 223 221 219 218 216 215 213 210 210 210 211 211 212 214 214 215 214 209 207 205 205 211 205 193 193 197 196 200 207 215 225 232 233 231 224 219 217 219 222 221 223 227 229 232 240 248 255 261 266
29 30 29 26 20 11 2 345 325 306 289 280 275 271 267 265 262 258 253 249 244 238 233 230 230 230 225 218 213 216 224 227 227 229 228 223 221 220 217 213 211 208 205 205 207 209 212 212 212 213 213 213 212 209 209 207 205 213 209 195 196 200 199 201 207 213 220 220 216 211 206 206 207 211 216 215 218 227 234 241 249 256 266 275 281
29 29 29 28 26 21 14 3 348 331 310 292 282 276 273 271 266 262 258 251 246 241 236 232 231 229 221 213 212 216 220 223 225 225 222 220 218 215 210 205 201 198 198 202 209 212 216 217 215 214 213 214 214 211 206 202 199 200 196 192 195 201 203 204 206 207 208 204 199 196 197 203 207 210 216 217 220 229 238 247 256 263 271 278 284
28 25 23 23 23 22 18 12 3 351 334 314 294 282 278 277 276 275 269 258 251 248 242 235 232 228 220 212 213 217 218 220 222 219 216 214 209 204 202 198 195 196 199 204 211 217 222 220 218 218 215 214 217 213 199 195 197 195 191 192 197 200 202 203 205 208 208 203 200 199 201 207 212 215 219 221 226 235 243 253 263 272 279 283 283
26 24 22 20 20 19 17 14 11 5 354 338 316 295 283 280 283 285 279 267 260 255 247 239 234 231 222 214 212 215 217 217 216 212 208 205 200 198 201 202 201 202 202 204 211 217 220 219 217 216 211 207 209 204 193 191 196 195 192 194 196 196 198 199 199 203 205 203 202 201 202 207 211 213 218 225 238 252 262 270 277 280 282 284 284
23 22 22 20 19 18 16 13 11 8 3 354 339 321 309 301 297 295 290 281 271 262 251 242 237 232 225 220 216 213 213 216 212 207 203 200 199 201 205 207 206 204 203 204 211 217 220 219 215 209 202 197 195 192 187 187 192 192 191 193 194 195 197 197 194 190 189 192 196 197 198 200 204 213 229 252 269 275 279 280 281 282 283 285 285
21 21 19 18 17 17 17 15 13 9 5 0 354 347 342 330 315 309 301 286 272 262 251 240 234 231 225 222 220 213 211 213 208 204 202 200 200 203 207 206 203 203 203 205 212 218 217 215 210 204 198 191 187 185 184 188 192 190 188 189 189 187 188 187 185 185 184 184 186 186 185 186 193 209 240 263 274 278 280 281 282 284 285 285 284
21 20 17 15 14 16 18 19 18 16 11 8 6 2 356 343 324 309 297 280 262 254 247 237 232 229 224 221 218 212 210 210 206 204 204 203 202 204 207 205 203 205 208 208 211 211 204 202 201 199 195 189 183 179 180 185 188 185 185 185 178 176 180 182 180 181 181 178 177 178 179 189 212 251 270 278 285 288 291 291 289 288 287 285 284
20 18 17 15 12 13 18 20 21 22 22 20 19 15 7 356 339 315 294 277 258 245 240 234 229 226 223 219 213 208 207 204 202 204 204 203 205 209 212 212 211 214 215 210 206 200 194 193 194 193 188 182 176 173 177 186 187 183 187 189 182 181 184 182 177 174 174 177 186 199 219 243 267 281 286 291 295 298 298 294 291 292 292 287 283
19 17 17 16 12 11 17 20 22 27 29 28 27 24 18 9 359 345 319 289 268 252 238 228 221 221 220 212 203 201 202 197 198 203 203 202 208 215 220 221 219 219 219 210 200 196 192 189 190 193 189 182 179 182 193 200 194 187 192 193 187 183 180 176 176 179 186 200 216 229 246 265 280 287 289 291 294 295 294 290 288 291 290 284 286
21 19 18 17 16 15 19 21 23 30 35 35 34 32 27 21 18 16 9 343 309 280 239 212 207 214 211 200 195 197 198 198 201 203 201 202 210 217 221 223 219 220 221 209 198 196 195 189 190 197 199 194 193 197 202 201 192 188 188 185 181 179 178 179 187 198 211 223 236 250 268 281 286 288 289 290 290 290 290 288 288 291 293 293 300
26 23 20 20 22 22 24 26 28 34 39 40 40 41 38 32 30 36 41 38 38 60 90 64 330 254 206 191 194 199 200 202 204 203 202 204 208 213 220 222 218 219 219 208 197 194 195 191 190 196 202 202 201 199 196 190 185 183 180 180 186 190 191 202 215 223 235 249 264 273 279 282 283 286 288 288 290 291 293 296 296 300 302 302 307
31 29 26 26 27 29 32 32 33 37 43 46 46 47 48 44 41 52 61 62 68 70 47 13 312 224 175 172 187 199 202 201 198 200 205 205 203 206 214 219 220 221 218 208 197 191 190 189 188 191 195 197 196 194 191 184 180 181 182 186 199 205 209 224 238 256 272 279 279 277 276 276 279 283 285 288 292 296 301 306 309 311 312 311 315
31 31 32 33 34 36 38 38 38 41 46 52 53 52 55 55 52 56 64 70 76 74 66 85 127 139 139 152 171 180 188 193 193 197 202 199 194 199 209 215 218 218 215 210 203 195 189 187 187 188 189 192 192 190 189 184 180 183 191 202 221 237 256 273 283 286 286 285 280 274 269 267 269 275 281 287 295 303 309 315 316 318 318 317 321
29 30 35 38 39 42 44 45 46 47 51 57 60 58 59 62 61 60 61 64 70 77 81 89 99 108 117 122 124 132 147 159 171 184 190 185 184 192 203 206 206 206 204 199 196 192 186 183 184 186 187 190 191 188 190 196 199 206 215 234 255 270 278 282 283 281 280 277 268 256 242 235 237 249 269 284 297 306 312 315 315 318 321 323 329
31 34 38 43 44 45 48 52 54 56 56 57 56 55 56 58 60 59 58 58 62 67 71 76 81 88 94 97 100 108 120 128 137 149 159 161 161 164 171 176 177 181 184 178 173 176 178 177 181 187 189 191 193 193 195 201 211 223 238 255 266 272 275 275 276 280 274 248 230 224 215 214 225 247 269 285 296 302 306 311 314 319 325 326 326
38 41 44 47 49 48 49 53 55 56 55 52 50 50 50 50 52 52 52 52 53 55 56 58 64 70 74 76 80 85 92 101 112 125 136 143 148 152 159 165 168 173 180 178 175 178 181 181 186 192 194 198 203 205 208 217 227 235 244 249 253 261 270 278 278 264 240 222 215 215 218 228 244 262 275 286 294 300 308 316 321 322 322 316 307
45 47 48 49 53 54 53 53 52 51 51 50 49 48 47 47 49 50 49 49 47 45 44 44 47 51 53 54 55 56 57 60 68 84 102 118 127 131 136 143 149 153 160 167 173 178 179 178 181 186 193 201 207 212 220 229 232 232 234 235 237 241 241 235 225 216 211 209 210 217 229 242 254 264 270 283 300 316 323 327 329 329 318 316 314
47 50 49 49 51 54 57 57 55 53 53 52 51 51 50 48 47 47 47 45 43 41 40 40 41 40 38 35 29 23 16 14 21 34 49 69 88 96 103 108 108 113 124 126 127 135 148 157 162 161 152 141 128 120 164 192 198 192 186 183 182 184 188 192 195 195 200 210 221 231 239 242 244 249 261 350 1 351 344 347 354 333 309 110 85
46 50 52 51 50 50 52 55 56 56 54 52 52 52 50 47 46 47 46 43 39 36 36 38 41 41 40 42 42 32 342 296 294 306 324 330 74 148 155 145 119 105 104 92 85 95 121 142 141 117 84 70 71 96 118 128 144 156 161 162 165 171 176 180 190 203 216 225 229 228 223 206 164 121 87 69 71 77 77 90 106 113 114 109 97
44 47 50 51 50 48 47 47 49 52 53 52 51 50 48 46 45 48 50 47 42 38 36 39 41 41 41 46 52 56 63 66 70 85 161 200 187 179 177 171 157 142 132 127 121 114 108 108 107 100 96 104 128 141 142 144 152 159 163 168 172 177 184 193 206 215 217 213 201 183 161 141 122 113 107 106 116 119 112 112 113 108 106 108 110
42 42 45 47 48 48 47 45 44 46 50 52 53 51 51 50 49 48 49 48 45 44 43 44 45 44 44 47 51 55 59 63 68 73 80 88 94 95 96 101 107 107 103 99 98 97 97 103 111 116 124 137 145 147 147 155 171 183 187 189 190 195 201 206 206 198 184 165 153 141 131 125 121 119 119 121 121 116 107 105 104 104 113 123 122
44 40 41 43 45 45 47 47 46 46 48 52 54 52 52 53 54 53 52 50 49 49 48 47 47 46 47 47 46 48 52 57 63 70 74 79 82 82 84 86 88 90 91 92 98 107 116 124 128 132 142 152 159 168 175 185 199 208 210 212 214 213 206 193 173 157 144 136 132 127 124 124 125 124 123 120 115 110 104 103 104 107 111 111 105
46 44 43 44 45 46 47 48 50 51 53 53 54 53 53 55 56 55 53 51 50 50 49 49 47 47 49 50 49 49 51 55 61 67 72 77 82 86 90 94 98 100 102 106 118 131 140 144 146 155 167 178 186 194 201 208 217 227 236 236 220 190 170 157 144 133 126 125 125 125 125 126 124 121 118 112 110 110 109 106 104 101 97 92 87
47 48 48 48 47 47 47 48 50 53 55 55 54 53 53 54 55 54 51 48 46 46 47 47 46 44 45 48 52 56 59 60 64 69 73 79 86 93 100 109 120 125 123 123 140 160 163 167 173 179 186 197 206 211 217 225 232 236 229 205 178 160 146 133 125 122 121 122 124 125 125 122 118 115 113 111 110 110 108 104 98 94 92 90 88
46 49 49 48 46 45 45 47 49 51 52 51 49 49 50 51 52 51 47 43 42 43 43 43 42 40 37 37 40 47 56 63 68 78 91 105 113 120 127 138 151 155 150 151 182 203 198 197 201 205 210 217 223 227 231 233 225 202 175 160 150 141 131 123 121 122 122 123 125 125 123 120 117 114 112 110 108 106 104 102 98 96 97 93 87
41 45 46 46 46 45 45 45 46 47 46 42 39 39 42 44 45 43 40 38 39 39 39 37 35 34 32 29 27 29 37 47 57 69 93 144 174 184 186 183 186 197 211 218 219 218 217 218 220 225 229 234 238 237 228 202 170 153 147 145 139 132 126 123 123 123 122 123 124 121 119 117 115 112 110 110 109 107 105 103 99 97 95 90 82
34 38 41 44 45 45 44 44 43 43 41 38 32 28 29 32 35 37 36 34 35 37 37 34 30 26 23 23 22 22 24 29 37 48 54 62 141 196 215 217 214 218 226 226 220 214 216 220 226 231 237 237 228 203 173 155 146 142 141 138 132 127 124 122 121 120 120 120 118 115 114 113 110 107 106 104 104 104 103 100 96 90 86 83 76
29 30 34 38 39 37 37 38 39 38 39 37 32 26 20 17 20 29 33 31 31 35 35 32 27 22 17 15 17 20 22 21 23 31 37 38 44 90 176 191 192 198 206 208 208 211 218 224 226 225 217 194 165 152 146 143 141 139 136 132 127 123 120 118 118 118 118 116 113 111 110 109 107 106 105 103 100 97 93 87 82 73 66 68 64
29 26 27 29 30 29 30 32 32 32 32 32 31 27 21 12 9 20 28 27 27 33 34 29 24 20 17 14 13 16 23 25 22 22 28 30 32 48 96 127 135 152 179 193 198 206 214 213 197 171 153 145 141 139 138 138 136 134 132 128 124 120 117 116 116 117 116 114 112 110 109 109 108 107 106 104 100 95 89 85 80 71 58 53 50
24 21 20 21 21 21 24 28 30 28 26 27 26 24 22 16 9 10 20 25 28 33 32 27 24 22 19 16 13 15 24 28 24 22 25 26 29 41 69 97 112 128 158 171 169 165 163 155 143 135 134 135 135 135 135 134 132 130 128 126 124 121 120 119 118 119 119 118 117 115 115 116 114 109 105 103 97 92 89 86 82 75 63 51 47
19 16 16 16 16 16 20 26 29 27 25 25 24 21 20 17 13 12 16 23 30 34 30 25 24 24 22 19 18 19 25 28 26 25 26 26 28 40 69 96 110 122 133 135 132 132 134 133 129 129 132 134 135 136 135 133 131 130 128 128 128 127 125 123 123 126 127 125 123 123 122 117 110 104 103 104 102 98 93 85 76 68 60 53 52
18 11 11 14 16 17 18 22 24 24 26 27 26 24 23 20 18 22 23 22 28 34 29 22 20 22 23 22 21 22 24 26 24 24 26 27 29 41 72 102 117 125 128 128 129 131 132 132 131 133 136 138 138 138 136 134 134 132 130 129 129 128 127 127 127 129 129 127 125 126 125 120 114 111 110 107 103 98 94 87 77 66 56 54 59
11 360 357 2 10 15 18 18 17 18 23 26 27 29 30 29 27 27 25 21 22 28 27 20 14 14 18 21 23 24 25 24 22 21 23 25 26 34 64 105 123 128 130 131 134 135 135 135 137 139 141 142 143 142 140 138 136 134 133 134 133 131 129 129 127 125 123 122 121 121 123 125 124 120 112 103 95 92 97 102 97 84 68 59 61
14 3 355 355 358 3 9 10 6 4 9 17 24 30 34 38 40 38 29 18 10 13 20 20 14 8 11 16 19 20 22 23 21 19 20 23 25 27 42 90 127 138 140 140 140 141 140 140 142 144 146 147 147 145 143 139 137 137 138 139 137 135 133 132 130 125 121 121 120 119 120 126 126 117 102 91 84 84 107 130 127 110 87 68 59
12 9 5 3 1 358 356 357 355 351 350 359 13 23 28 33 41 45 41 26 12 8 11 13 10 7 10 16 17 17 17 18 19 18 17 19 24 28 32 55 121 149 155 153 150 149 149 147 146 146 148 150 150 148 146 144 143 144 146 145 144 143 141 137 134 131 127 126 125 119 114 113 108 85 36 8 38 75 144 172 170 159 129 88 65
15 12 13 12 8 3 357 352 350 347 341 340 351 3 10 16 24 32 36 34 24 13 6 4 6 11 14 16 18 18 15 14 15 16 15 14 17 26 31 38 73 150 171 173 168 163 160 158 157 157 157 158 160 159 157 157 155 155 156 157 155 151 147 141 136 132 130 131 131 120 92 40 10 353 329 318 311 283 249 235 220 207 189 150 110
26 22 18 14 9 6 1 353 346 342 338 335 334 336 341 349 357 4 11 18 19 13 4 2 6 12 14 15 19 23 21 16 13 14 14 13 11 15 26 33 42 86 167 182 183 180 175 171 172 175 174 174 177 177 173 171 168 165 164 163 159 153 149 146 142 140 139 142 142 69 353 336 329 324 320 318 314 300 284 274 253 235 219 199 171
23 22 19 13 10 10 7 359 348 337 329 325 320 316 315 319 330 340 347 354 1 4 3 2 4 7 12 17 21 23 19 14 11 13 14 14 12 11 14 22 31 50 109 167 181 184 182 178 181 187 188 187 189 191 187 184 179 173 167 163 160 158 158 159 162 171 188 227 286 313 320 318 317 320 333 356 13 16 12 8 356 307 216 199 186
20 23 24 20 18 18 17 14 8 1 353 343 332 319 307 302 305 314 325 334 341 346 349 355 4 12 16 16 17 20 17 9 4 6 11 13 13 11 10 9 14 31 130 151 168 179 183 184 187 192 194 195 197 199 198 191 182 174 170 168 170 174 181 189 205 230 257 276 290 301 306 306 312 328 2 33 46 44 34 29 22 20 72 176 178
20 24 25 22 19 19 21 22 23 23 21 14 5 356 346 331 318 309 307 313 322 328 330 335 342 345 336 336 342 348 356 359 356 354 359 7 11 9 5 2 3 351 233 200 188 187 191 196 199 201 203 208 209 205 197 187 180 177 180 188 197 208 223 237 250 262 273 282 290 296 299 299 313 5 27 38 50 47 39 36 37 36 75 148 163
19 20 19 18 17 18 18 19 20 22 21 16 11 7 4 359 350 335 319 306 303 306 311 314 316 312 306 309 317 319 316 320 335 341 342 351 2 6 3 359 356 357 330 230 218 212 212 219 227 227 220 211 203 195 188 187 191 202 215 228 242 254 262 267 273 277 282 285 287 287 278 265 271 37 15 23 41 44 33 31 42 64 108 142 156
19 17 14 12 14 15 14 13 13 14 13 10 7 4 360 355 350 342 333 319 303 294 293 294 297 300 301 299 305 314 315 309 312 331 342 343 349 356 358 356 350 340 336 256 219 217 215 220 225 222 209 199 194 195 201 214 229 245 258 269 277 282 285 286 287 286 286 284 276 260 232 201 183 274 340 13 37 39 29 26 43 88 127 149 160